Las Vegas, NV

3:18 AM PST on December 13, 2017 (GMT -0800)
McCarran International

Weather History for KLAS - March, 2013

Change the Weather History Date:

Saturday, March 2, 2013

  Actual Average Record
Temperature  
Mean Temperature 62 °F 57 °F  
Max Temperature 75 °F 67 °F 82 °F (1967)
Min Temperature 49 °F 47 °F 19 °F (1939)
Degree Days  
Heating Degree Days 3 9  
Month to date heating degree days 9 18  
Since 1 July heating degree days 1646 1709  
Cooling Degree Days 0 0  
Month to date cooling degree days 0 0  
Year to date cooling degree days 0 1  
Growing Degree Days 12 (Base 50)    
Moisture  
Dew Point 26 °F    
Average Humidity 30    
Maximum Humidity 42    
Minimum Humidity 17    
Precipitation  
Precipitation 0.00 in 0.02 in 0.79 in (1938)
Month to date precipitation 0.00 0.04  
Year to date precipitation 0.43 1.34  
Snow  
Snow 0.00 in 0.00 in T in (1951)
Month to date snowfall 0.0 0.0  
Since 1 July snowfall T 0.3  
Snow Depth 0.00 in    
Sea Level Pressure  
Sea Level Pressure 30.15 in    
Wind  
Wind Speed 6 mph (South)    
Max Wind Speed 16 mph    
Max Gust Speed 20 mph    
Visibility 10 miles    
Events      
T = Trace of Precipitation, MM = Missing Value Source: NWS Daily Summary

Daily Weather History Graph

Daily Weather History Graph

Search for Another Location

Airport or City:

Trip Planner

Search our weather history database for the weather conditions in past years. The results will help you decide how hot, cold, wet, or windy it might be!

Date:

Astronomy

Mar. 02, 2013 Rise Set
Actual Time 6:09 AM PST 5:36 PM PST
Civil Twilight 5:43 AM PST 6:02 PM PST
Nautical Twilight 5:13 AM PST 6:32 PM PST
Astronomical Twilight 4:43 AM PST 7:01 PM PST
Moon 11:09 PM PST (3/2) 8:51 AM PST (3/2)
Length of Visible Light 12h 19m
Length of Day
11h 27m
Waning Gibbous, 73% of the Moon is Illuminated
Mar 2
Waning Gibbous
Mar 4
Last Quarter
Mar 11
New
Mar 19
First Quarter
Mar 27
Full

Hourly Weather History & Observations

Time (PST) Temp. Dew Point Humidity Pressure Visibility Wind Dir Wind Speed Gust Speed Precip Events Conditions
12:56 AM 54.0 °F 25.0 °F 33% 30.27 in 10.0 mi SSW 8.1 mph - N/A   Clear
1:56 AM 52.0 °F 25.0 °F 35% 30.28 in 10.0 mi SSW 5.8 mph - N/A   Clear
2:56 AM 52.0 °F 26.1 °F 37% 30.26 in 10.0 mi South 9.2 mph - N/A   Clear
3:56 AM 48.9 °F 26.1 °F 41% 30.27 in 10.0 mi SSW 5.8 mph - N/A   Clear
4:56 AM 50.0 °F 26.1 °F 39% 30.26 in 10.0 mi SSW 8.1 mph - N/A   Clear
5:56 AM 48.9 °F 25.0 °F 39% 30.28 in 10.0 mi SSW 10.4 mph - N/A   Clear
6:56 AM 52.0 °F 26.1 °F 37% 30.28 in 10.0 mi SSW 8.1 mph - N/A   Partly Cloudy
7:56 AM 55.9 °F 27.0 °F 33% 30.29 in 10.0 mi South 5.8 mph - N/A   Partly Cloudy
8:56 AM 62.1 °F 28.0 °F 28% 30.27 in 10.0 mi SSE 4.6 mph - N/A   Scattered Clouds
9:56 AM 64.9 °F 27.0 °F 24% 30.27 in 10.0 mi SSE 4.6 mph - N/A   Mostly Cloudy
10:56 AM 66.9 °F 27.0 °F 22% 30.25 in 10.0 mi SE 3.5 mph - N/A   Mostly Cloudy
11:56 AM 69.1 °F 27.0 °F 21% 30.20 in 10.0 mi SSE 3.5 mph - N/A   Scattered Clouds
12:56 PM 72.0 °F 27.0 °F 19% 30.15 in 10.0 mi Variable 3.5 mph - N/A   Scattered Clouds
1:56 PM 73.9 °F 26.1 °F 17% 30.12 in 10.0 mi South 5.8 mph - N/A   Scattered Clouds
2:56 PM 73.9 °F 26.1 °F 17% 30.09 in 10.0 mi South 5.8 mph - N/A   Mostly Cloudy
3:56 PM 73.9 °F 27.0 °F 18% 30.06 in 10.0 mi SE 6.9 mph - N/A   Mostly Cloudy
4:56 PM 72.0 °F 27.0 °F 19% 30.04 in 10.0 mi East 5.8 mph - N/A   Mostly Cloudy
5:56 PM 70.0 °F 27.0 °F 20% 30.03 in 10.0 mi Calm Calm - N/A   Overcast
6:56 PM 69.1 °F 27.0 °F 21% 30.02 in 10.0 mi Calm Calm - N/A   Overcast
7:56 PM 68.0 °F 28.0 °F 22% 30.02 in 10.0 mi SW 5.8 mph - N/A   Overcast
8:56 PM 64.9 °F 28.9 °F 26% 30.01 in 10.0 mi SSW 8.1 mph - N/A   Overcast
9:56 PM 64.9 °F 26.1 °F 23% 29.99 in 10.0 mi South 11.5 mph - N/A   Mostly Cloudy
10:56 PM 63.0 °F 23.0 °F 22% 29.98 in 10.0 mi SW 9.2 mph - N/A   Mostly Cloudy
11:56 PM 66.0 °F 19.0 °F 17% 29.96 in 10.0 mi SSW 12.7 mph - N/A   Mostly Cloudy